Riverside, CA

7:33 AM PST on December 16, 2017 (GMT -0800)
Riverside Municipal

Weather History for KRAL - December, 2013

Change the Weather History Date:

Sunday, December 29, 2013

  Actual Average Record
Temperature  
Mean Temperature 57 °F 54 °F  
Max Temperature 73 °F 66 °F 90 °F (1917)
Min Temperature 41 °F 43 °F 24 °F (1954)
Degree Days  
Heating Degree Days 8 11  
Month to date heating degree days 228 305  
Since 1 July heating degree days 371 505  
Cooling Degree Days 0 0  
Month to date cooling degree days 10 0  
Year to date cooling degree days 1996 1754  
Growing Degree Days 7 (Base 50)    
Moisture  
Dew Point 8 °F    
Average Humidity 38    
Maximum Humidity 70    
Minimum Humidity 6    
Precipitation  
Precipitation 0.00 in 0.09 in 1.00 in (1951)
Month to date precipitation 0.16 1.35  
Year to date precipitation 3.36 12.22  
Since 1 July precipitation 1.15  
Snow  
Snow 0.00 in - - ()
Month to date snowfall 0.0  
Year to date snowfall 0.0  
Snow Depth 0.00 in    
Sea Level Pressure  
Sea Level Pressure 30.05 in    
Wind  
Wind Speed 12 mph (NNE)    
Max Wind Speed 22 mph    
Max Gust Speed 38 mph    
Visibility 10 miles    
Events      
T = Trace of Precipitation, MM = Missing Value Source: NWS Daily Summary

Daily Weather History Graph

Daily Weather History Graph

Search for Another Location

Airport or City:

Trip Planner

Search our weather history database for the weather conditions in past years. The results will help you decide how hot, cold, wet, or windy it might be!

Date:

Astronomy

Dec. 29, 2013 Rise Set
Actual Time 6:54 AM PST 4:49 PM PST
Civil Twilight 6:26 AM PST 5:17 PM PST
Nautical Twilight 5:55 AM PST 5:48 PM PST
Astronomical Twilight 5:25 AM PST 6:19 PM PST
Moon 3:46 AM PST (12/29) 2:28 PM PST (12/29)
Length of Visible Light 10h 50m
Length of Day
9h 55m
Waning Crescent, 10% of the Moon is Illuminated
Dec 29
Waning Crescent
Jan 1
New
Jan 7
First Quarter
Jan 15
Full
Jan 23
Last Quarter

Hourly Weather History & Observations

Time (PST) Temp. Windchill Dew Point Humidity Pressure Visibility Wind Dir Wind Speed Gust Speed Precip Events Conditions
12:53 AM 46.0 °F 44.8 °F 30.9 °F 56% 29.98 in 10.0 mi ENE 3.5 mph - N/A   Clear
1:53 AM 42.1 °F 39.2 °F 33.1 °F 70% 29.99 in 10.0 mi East 4.6 mph - N/A   Clear
2:53 AM 59.0 °F - 19.0 °F 21% 29.97 in 10.0 mi NE 13.8 mph 20.7 mph N/A   Clear
3:53 AM 64.9 °F - 12.9 °F 13% 29.97 in 10.0 mi NNE 12.7 mph 28.8 mph N/A   Clear
4:53 AM 64.9 °F - 14.0 °F 14% 29.99 in 10.0 mi NNE 12.7 mph 27.6 mph N/A   Clear
5:53 AM 64.0 °F - 12.9 °F 14% 30.00 in 10.0 mi NNE 18.4 mph 32.2 mph N/A   Clear
6:53 AM 63.0 °F - 12.0 °F 14% 29.99 in 10.0 mi North 18.4 mph 31.1 mph N/A   Clear
7:53 AM 64.9 °F - 8.1 °F 11% 30.03 in 10.0 mi NNE 18.4 mph 32.2 mph N/A   Clear
8:53 AM 66.9 °F - 8.1 °F 10% 30.05 in 10.0 mi North 13.8 mph 31.1 mph N/A   Clear
9:53 AM 69.1 °F - 7.0 °F 9% 30.08 in 10.0 mi NNE 11.5 mph 23.0 mph N/A   Clear
10:53 AM 70.0 °F - 3.0 °F 7% 30.09 in 10.0 mi NE 11.5 mph 25.3 mph N/A   Clear
11:53 AM 72.0 °F - 3.0 °F 7% 30.06 in 10.0 mi NNE 11.5 mph 21.9 mph N/A   Clear
12:53 PM 72.0 °F - 1.9 °F 6% 30.04 in 10.0 mi North 15.0 mph 27.6 mph N/A   Clear
1:53 PM 72.0 °F - 1.0 °F 6% 30.04 in 10.0 mi North 15.0 mph 27.6 mph N/A   Clear
2:53 PM 72.0 °F - 1.0 °F 6% 30.03 in 10.0 mi North 9.2 mph 24.2 mph N/A   Clear
3:53 PM 71.1 °F - -0.0 °F 6% 30.04 in 10.0 mi North 9.2 mph 21.9 mph N/A   Clear
4:53 PM 68.0 °F - -0.9 °F 6% 30.05 in 10.0 mi North 8.1 mph 17.3 mph N/A   Clear
5:53 PM 66.9 °F - -2.0 °F 6% 30.07 in 10.0 mi NE 10.4 mph 19.6 mph N/A   Clear
6:53 PM 64.0 °F - 1.0 °F 8% 30.09 in 10.0 mi Variable 5.8 mph - N/A   Clear
7:53 PM 64.9 °F - -2.0 °F 7% 30.11 in 10.0 mi NE 8.1 mph - N/A   Clear
8:53 PM 63.0 °F - -0.0 °F 8% 30.11 in 10.0 mi East 8.1 mph - N/A   Clear
9:53 PM 62.1 °F - 1.0 °F 9% 30.12 in 10.0 mi NE 5.8 mph - N/A   Clear
10:53 PM 54.0 °F - 10.9 °F 18% 30.12 in 10.0 mi ENE 6.9 mph - N/A   Clear
11:53 PM 53.1 °F - 10.9 °F 19% 30.13 in 10.0 mi NE 5.8 mph - N/A   Clear